Terminal Aerodrome Forecast
Issued by NWS Buffalo, NY

Home | Current Version | Previous Version | Text Only | Print | Product List | Glossary On
Versions: 1 2 3 4 5 6 7 8 9 10 11 12 13 14 15 16 17 18 19 20 21 22 23 24 25
118
FTUS41 KBUF 211728
TAFROC
TAF
KROC 211728Z 2118/2218 19010KT P6SM SCT130 OVC200
     FM212200 20008KT 6SM -SHRA OVC060
     FM220300 21007KT P6SM OVC025
     FM220800 21004KT 3SM BR BKN015
     FM221300 19004KT P6SM BKN025
     FM221600 20004KT P6SM BKN040=

USA.gov is the U.S. government's official web portal to all federal, state and local government web resources and services.